Total_Precipitation_Accumulation
0.00 0.00 0.05 0.02 0.01 0.01 0.02 0.01 0.00 0.00 0.01 0.01 0.01 0.01 0.01 0.00 0.00 0.00 0.00 0.01 0.01 0.01 0.01 0.01 0.01 0.02 0.02 0.02 0.01 0.01 0.01 0.00 0.00 0.00 0.01 0.01 0.02 0.03 0.05 0.04 0.06 0.09 0.04
0.00 0.00 0.02 0.01 0.01 0.01 0.02 0.01 0.00 0.00 0.00 0.01 0.01 0.00 0.01 0.01 0.00 0.01 0.01 0.01 0.00 0.00 0.00 0.00 0.01 0.01 0.01 0.01 0.01 0.01 0.00 0.00 0.00 0.01 0.01 0.01 0.02 0.03 0.04 0.02 0.06 0.06 0.02
0.00 0.00 0.01 0.00 0.01 0.02 0.01 0.01 0.01 0.00 0.00 0.01 0.01 0.02 0.02 0.01 0.01 0.01 0.01 0.01 0.01 0.00 0.00 0.00 0.00 0.00 0.01 0.01 0.01 0.00 0.00 0.00 0.01 0.01 0.02 0.03 0.02 0.02 0.03 0.02 0.02 0.02 0.02
0.00 0.00 0.00 0.01 0.01 0.01 0.01 0.01 0.02 0.01 0.01 0.01 0.05 0.05 0.05 0.01 0.01 0.01 0.01 0.01 0.00 0.00 0.00 0.00 0.00 0.00 0.00 0.01 0.01 0.00 0.00 0.00 0.01 0.01 0.04 0.12 0.07 0.02 0.02 0.03 0.02 0.02 0.02
0.00 0.00 0.00 0.01 0.01 0.01 0.01 0.02 0.03 0.02 0.01 0.03 0.08 0.09 0.07 0.02 0.02 0.03 0.01 0.01 0.01 0.01 0.01 0.00 0.01 0.00 0.00 0.01 0.01 0.00 0.00 0.01 0.01 0.01 0.03 0.12 0.16 0.07 0.05 0.07 0.06 0.05 0.04
0.00 0.00 0.00 0.01 0.01 0.01 0.01 0.01 0.04 0.06 0.04 0.05 0.08 0.09 0.07 0.06 0.08 0.07 0.03 0.02 0.02 0.02 0.02 0.01 0.01 0.01 0.00 0.01 0.01 0.01 0.01 0.01 0.01 0.03 0.03 0.04 0.14 0.14 0.13 0.22 0.25 0.19 0.12
0.00 0.00 0.00 0.01 0.01 0.00 0.00 0.01 0.02 0.04 0.05 0.07 0.08 0.07 0.04 0.03 0.03 0.03 0.02 0.02 0.02 0.01 0.01 0.01 0.01 0.01 0.01 0.01 0.01 0.01 0.01 0.01 0.01 0.03 0.03 0.06 0.13 0.13 0.20 0.40 0.54 0.48 0.36
0.00 0.00 0.00 0.01 0.01 0.00 0.00 0.00 0.01 0.01 0.01 0.02 0.02 0.02 0.01 0.01 0.02 0.04 0.03 0.02 0.02 0.02 0.02 0.02 0.02 0.03 0.03 0.03 0.02 0.03 0.03 0.02 0.01 0.02 0.04 0.07 0.08 0.10 0.32 0.53 0.66 0.67 0.61
0.00 0.00 0.00 0.01 0.01 0.01 0.01 0.00 0.00 0.01 0.01 0.01 0.01 0.01 0.01 0.01 0.02 0.04 0.06 0.06 0.06 0.06 0.06 0.05 0.04 0.03 0.03 0.04 0.04 0.04 0.04 0.04 0.03 0.03 0.05 0.09 0.11 0.25 0.62 0.76 0.76 0.79 0.77
0.00 0.00 0.01 0.01 0.01 0.01 0.01 0.01 0.01 0.01 0.01 0.01 0.01 0.01 0.01 0.01 0.02 0.05 0.08 0.09 0.11 0.15 0.16 0.11 0.08 0.07 0.06 0.05 0.04 0.04 0.05 0.05 0.04 0.03 0.07 0.07 0.12 0.37 0.73 0.90 0.93 0.91 0.86
0.01 0.01 0.01 0.02 0.02 0.01 0.01 0.01 0.01 0.02 0.02 0.02 0.03 0.03 0.03 0.03 0.07 0.14 0.18 0.25 0.26 0.28 0.28 0.23 0.21 0.19 0.18 0.12 0.14 0.18 0.12 0.05 0.05 0.04 0.06 0.07 0.16 0.38 0.66 0.85 0.93 0.96 0.90
0.01 0.01 0.01 0.02 0.02 0.02 0.01 0.03 0.03 0.04 0.06 0.06 0.09 0.14 0.18 0.24 0.21 0.10 0.18 0.37 0.49 0.56 0.53 0.51 0.52 0.42 0.35 0.29 0.57 0.70 0.21 0.14 0.11 0.08 0.11 0.16 0.30 0.50 0.75 0.80 0.82 0.88 0.85
0.01 0.01 0.01 0.02 0.03 0.03 0.03 0.03 0.04 0.05 0.10 0.10 0.12 0.20 0.26 0.27 0.19 0.12 0.15 0.28 0.48 0.59 0.50 0.67 0.78 0.55 0.59 0.67 0.66 0.65 0.34 0.30 0.28 0.22 0.22 0.33 0.49 0.71 1.01 0.95 0.81 0.79 0.77
0.02 0.02 0.02 0.02 0.03 0.04 0.04 0.03 0.04 0.05 0.07 0.09 0.15 0.17 0.25 0.30 0.23 0.23 0.26 0.29 0.39 0.49 0.66 0.74 0.84 0.80 0.79 0.71 0.69 0.64 0.58 0.58 0.48 0.57 0.53 0.44 0.54 0.73 1.06 1.03 0.82 0.77 0.72
0.05 0.06 0.06 0.05 0.05 0.06 0.07 0.08 0.09 0.11 0.12 0.15 0.21 0.21 0.24 0.33 0.35 0.39 0.38 0.37 0.36 0.47 0.59 0.71 0.77 0.98 1.10 0.89 0.70 0.66 0.67 0.74 0.72 0.81 0.73 0.63 0.61 0.70 0.91 1.01 0.92 0.85 0.77
0.12 0.17 0.18 0.19 0.22 0.22 0.23 0.23 0.26 0.28 0.31 0.32 0.33 0.36 0.37 0.46 0.52 0.54 0.51 0.54 0.52 0.57 0.66 0.80 0.94 1.18 1.16 1.09 0.86 0.73 0.71 0.70 0.66 0.71 0.71 0.76 0.74 0.71 0.73 0.82 0.87 0.83 0.77
0.26 0.34 0.40 0.48 0.54 0.57 0.55 0.56 0.60 0.58 0.56 0.59 0.62 0.65 0.63 0.66 0.71 0.72 0.63 0.63 0.75 0.87 0.94 0.97 1.10 1.29 1.09 1.12 0.92 0.85 0.75 0.67 0.58 0.58 0.65 0.68 0.67 0.65 0.68 0.73 0.75 0.73 0.73
0.48 0.57 0.75 0.88 0.92 0.95 1.00 1.05 1.08 1.04 1.01 0.99 0.96 0.96 0.88 0.86 0.89 0.99 0.85 0.81 1.14 1.20 1.20 1.30 1.43 1.41 1.28 1.26 1.10 0.93 0.77 0.69 0.56 0.51 0.48 0.51 0.56 0.52 0.61 0.69 0.67 0.63 0.69
0.91 1.11 1.35 1.47 1.46 1.44 1.52 1.58 1.58 1.46 1.34 1.25 1.15 1.09 1.02 1.06 1.12 1.27 1.17 1.25 1.50 1.50 1.44 1.42 1.62 1.54 1.37 1.34 1.26 1.01 0.72 0.60 0.48 0.41 0.37 0.33 0.37 0.43 0.44 0.48 0.49 0.52 0.67
1.38 1.70 1.80 1.93 2.16 2.19 2.19 2.08 1.86 1.54 1.35 1.31 1.30 1.21 1.18 1.24 1.35 1.55 1.39 1.38 1.57 1.63 1.55 1.52 1.44 1.45 1.30 1.30 1.26 0.98 0.68 0.46 0.40 0.33 0.29 0.26 0.23 0.24 0.29 0.36 0.41 0.39 0.50
1.59 1.88 2.17 2.42 2.59 2.49 2.29 2.07 1.91 1.76 1.68 1.50 1.41 1.36 1.28 1.25 1.31 1.52 1.41 1.45 1.49 1.42 1.37 1.45 1.44 1.30 1.06 1.24 1.27 0.93 0.57 0.42 0.38 0.26 0.23 0.21 0.19 0.18 0.20 0.27 0.36 0.41 0.44
1.60 1.99 2.25 2.56 2.67 2.48 2.22 2.04 1.97 1.94 1.68 1.45 1.45 1.43 1.41 1.43 1.37 1.41 1.40 1.36 1.36 1.36 1.23 1.18 1.25 1.13 0.93 1.09 1.16 1.08 0.62 0.41 0.34 0.27 0.30 0.35 0.32 0.28 0.26 0.29 0.32 0.43 0.49
1.48 1.71 1.90 2.00 1.99 1.88 1.86 1.90 1.92 1.92 1.69 1.63 1.70 1.74 1.70 1.70 1.63 1.57 1.47 1.33 1.14 1.09 0.98 0.99 1.08 1.08 0.96 0.95 1.12 1.23 0.90 0.59 0.51 0.37 0.38 0.39 0.39 0.39 0.37 0.40 0.40 0.47 0.54
1.44 1.61 1.77 1.76 1.62 1.51 1.55 1.73 1.81 1.79 1.74 1.88 2.11 2.03 1.79 1.62 1.46 1.28 1.13 1.06 0.97 0.93 0.81 0.77 0.85 0.85 0.82 0.79 0.88 1.00 1.08 1.06 0.93 0.50 0.32 0.29 0.35 0.40 0.46 0.45 0.40 0.43 0.53
1.23 1.31 1.47 1.54 1.46 1.43 1.45 1.52 1.63 1.67 1.67 1.67 1.67 1.62 1.50 1.33 1.12 0.94 0.84 0.79 0.73 0.72 0.65 0.60 0.59 0.59 0.62 0.64 0.72 0.82 0.94 1.03 1.06 0.90 0.53 0.47 0.50 0.47 0.50 0.46 0.46 0.48 0.50
1.00 1.01 0.99 1.07 1.14 1.20 1.24 1.27 1.29 1.26 1.23 1.17 1.10 1.07 1.01 0.92 0.75 0.62 0.57 0.57 0.60 0.64 0.58 0.52 0.51 0.50 0.55 0.62 0.68 0.73 0.80 0.80 0.86 0.96 0.76 0.63 0.55 0.49 0.52 0.56 0.57 0.62 0.59